Regional Weather Roundup
Issued by NWS

Home | Current Version | Previous Version | Graphics & Text | Print | Product List | Glossary On
Versions: 1 2 3 4 5 6 7 8 9 10 11 12 13 14 15 16 17 18 19 20 21 22 23 24 25 26 27 28 29 30 31 32 33 34 35 36 37 38 39 40 41 42 43 44 45 46 47 48 49 50
000
ASUS43 KMPX 161810
RWRMN
WEATHER ROUNDUP FOR MINNESOTA
NATIONAL WEATHER SERVICE TWIN CITIES/CHANHASSEN MN
100 PM CDT TUE SEP 16 2014


NOTE: "FAIR" INDICATES FEW OR NO CLOUDS BELOW 12,000 FEET WITH NO
SIGNIFICANT WEATHER AND/OR OBSTRUCTIONS TO VISIBILITY. N/A MEANS
CURRENT SKY AND/OR WEATHER CONDITIONS ARE NOT AVAILABLE.

MNZ060>063-068>070-161900-
   Twin Cities Metro

CITY           SKY/WX    TMP DP  RH WIND       PRES   REMARKS
TWIN CITIES    SUNNY     64  41  42 SW12      30.13F
6HR MIN TEMP:  43; 6HR MAX TEMP:  64;

ST PAUL        SUNNY     64  41  42 SW8       30.13F
CRYSTAL        SUNNY     66  40  38 SW9       30.11F
BLAINE         SUNNY     66  41  39 SW9       30.12
LAKEVILLE      SUNNY     63  45  51 W6        30.13F
EDEN PRAIRIE   SUNNY     65  42  43 MISG      30.11F
6HR MIN TEMP:  39; 6HR MAX TEMP:  65;

SOUTH ST PAUL  SUNNY     64  41  41 W10       30.12F
LAKE ELMO      FAIR      63  41  45 SW5       30.13F
$$
MNZ001>005-007-008-013>017-022>024-027-028-161900-
   Northwest Minnesota

CITY           SKY/WX    TMP DP  RH WIND       PRES   REMARKS
BEMIDJI        SUNNY     67  42  39 W14       30.03F
HALLOCK        MOSUNNY   64  43  45 CALM      29.98F
ROSEAU         CLOUDY    57  46  67 SW3       30.00S
WARROAD        MOSUNNY   55  46  71 SW5       30.00F
THIEF RVR FALL SUNNY     64  43  45 W8        30.02S
CROOKSTON      SUNNY     68  45  42 W9G16     30.01F
FOSSTON        SUNNY     66  45  45 SW9G16    30.03F
DETROIT LAKES  SUNNY     64  39  39 SW7       30.07S
MOORHEAD       SUNNY     68  43  40 S7        30.04F
PARK RAPIDS    SUNNY     66  39  37 W9        30.05F
MAHNOMEN       FAIR      66  40  37 W9        30.04F
$$
MNZ006-009>011-018-025>026-161900-
   North Central Minnesota

CITY           SKY/WX    TMP DP  RH WIND       PRES   REMARKS
BAUDETTE       CLOUDY    57  44  62 SW7       30.00S
FLAG ISLAND    MOSUNNY   61  50  67 CALM      29.98R
INTL FALLS     CLOUDY    56  45  66 NW9       30.00R
6HR MIN TEMP:  42; 6HR MAX TEMP:  58;

WASKISH        PTSUNNY   61  48  63 CALM      30.02S
BIG FORK       MOSUNNY   66  43  42 SW8       30.02S
LONGVILLE      SUNNY     66  43  42 SW10      30.05F
GRAND RAPIDS   SUNNY     63  41  45 SW10G16   30.04F
CRANE LAKE     CLOUDY    61  45  55 W3        30.00R
ORR            PTSUNNY   66  39  37 W12G17    29.97S
COOK           MOSUNNY   64  45  48 W14       30.00S
WALKER         FAIR      65  41  40 SW12G17   30.04F
$$
MNZ012-019>021-037-161900-
   Northeast Minnesota

CITY           SKY/WX    TMP DP  RH WIND       PRES   REMARKS
DULUTH         MOSUNNY   66  41  40 W18G24    30.03F
6HR MIN TEMP:  44; 6HR MAX TEMP:  67;

ELY            SUNNY     64  43  45 W12G22    29.98S
HIBBING        MOSUNNY   65  42  43 W10G18    30.02F
EVELETH        SUNNY     63  43  48 W14       30.03R
DULUTH HARBOR  SUNNY     68  43  40 SW16G23   30.04S
TWO HARBORS    SUNNY     64  45  48 W9G21     29.99S
SILVER BAY     SUNNY     66  48  52 SW7       29.97S
GRAND MARAIS     N/A     56  48  74 W7        29.96S
G MARAIS ARPRT PTSUNNY   61  39  44 W12       29.97F
$$
MNZ029>031-032-039>041-046>048-054>057-064-161900-
   West Central Minnesota

CITY           SKY/WX    TMP DP  RH WIND       PRES   REMARKS
FERGUS FALLS   SUNNY     66  34  30 S9        30.06F
WHEATON        SUNNY     66  43  42 SE10      30.06F
MORRIS         SUNNY     66  43  42 S9        30.07F
ALEXANDRIA     SUNNY     64  40  41 SW10      30.10F
ELBOW LAKE     FAIR      66  40  39 S9        30.06F
WADENA         SUNNY     64  37  36 W8        30.07F
GLENWOOD       SUNNY     64  41  42 S9        30.10F
APPLETON       SUNNY     68  43  40 S9        30.07F
BENSON         SUNNY     64  43  45 SW8       30.09F
ORTONVILLE     SUNNY     66  43  42 S7        30.06F
MADISON        SUNNY     70  45  40 S8        30.07F
WILLMAR        FAIR      64  41  42 SW8       30.11F
$$
MNZ033>034-036-042>043-049>051-058-059-161900-
   Central Minnesota

CITY           SKY/WX    TMP DP  RH WIND       PRES   REMARKS
ST CLOUD       SUNNY     67  41  38 S8G17     30.10F
6HR MIN TEMP:  38; 6HR MAX TEMP:  67;

SAUK CENTRE    FAIR      64  39  40 SW8       30.10F
PAYNESVILLE    SUNNY     60  41  48 S10       30.11F
AITKIN         SUNNY     68  43  40 SW9G17    30.06F
PINE RIVER     SUNNY     64  45  48 W5        30.09F
BRAINERD       SUNNY     64  41  42 SW10      30.08F
STAPLES        SUNNY     64  37  36 SW5       30.08F
LONG PRAIRIE   FAIR      63  39  42 S8        30.10F
LITTLE FALLS   SUNNY     64  37  36 SW8       30.09F
LITCHFIELD     SUNNY     64  43  45 SW7       30.11F
BUFFALO        SUNNY     63  41  44 SW6       30.13F
MAPLE LAKE     SUNNY     65  45  49 SW6       30.12F
$$
MNZ037-044-045-052-053-161900-
   East Central Minnesota

CITY           SKY/WX    TMP DP  RH WIND       PRES   REMARKS
PRINCETON      SUNNY     66  43  42 SW8       30.11F
MORA           SUNNY     63  43  48 SW12      30.11F
CAMBRIDGE      SUNNY     66  46  48 SW8       30.09F
RUSH CITY      MOSUNNY   65  43  44 SW10      30.11F
MOOSE LAKE     SUNNY     64  39  39 W9G16     30.05F
HINCKLEY       FAIR      64  45  48 W13       30.09F
CLOQUET        SUNNY     66  37  34 SW14      30.05F
MCGREGOR       SUNNY     64  41  42 W8        30.07F
$$
MNZ071>073-080-081-089-090-097-098-161900-
   Southwest Minnesota

CITY           SKY/WX    TMP DP  RH WIND       PRES   REMARKS
MONTEVIDEO     SUNNY     68  45  42 SW7       30.10F
GRANITE FALLS  SUNNY     66  44  44 S10       30.11F
CANBY          SUNNY     65  46  49 S8        30.09F
MARSHALL       SUNNY     66  43  42 SW13G18   30.09F
REDWOOD FALLS  SUNNY     65  43  44 SW12      30.11F
OLIVIA         SUNNY     63  43  48 SW9       30.10F
PIPESTONE      SUNNY     63  45  51 S13G18    30.10F
WINDOM         SUNNY     63  43  48 S10       30.12F
WORTHINGTON    SUNNY     63  43  48 SW12      30.13F
JACKSON        SUNNY     63  43  48 SW14      30.14F
TRACY          SUNNY     64  45  50 SW12      30.11F
SLAYTON        SUNNY     62  40  44 SW6       30.12F
$$
MNZ065>067-074>077-082>085-091>093-161900-
   South Central Minnesota

CITY           SKY/WX    TMP DP  RH WIND       PRES   REMARKS
MANKATO        SUNNY     64  41  42 SW6       30.13F
NEW ULM        SUNNY     63  45  51 SW12      30.12F
ST JAMES       SUNNY     64  41  42 S10       30.14F
FAIRMONT       SUNNY     63  39  42 S13G18    30.14F
GLENCOE        SUNNY     64  40  41 SW7       30.12F
FARIBAULT      MOSUNNY   66  39  37 SW6       30.14F
OWATONNA       MOSUNNY   64  43  45 SW8       30.15F
WASECA         MOSUNNY   63  36  36 SW10      30.16F
ALBERT LEA     SUNNY     63  43  48 SW6       30.15F
$$
MNZ078>079-086>088-094>096-161900-
   Southeast Minnesota

CITY           SKY/WX    TMP DP  RH WIND       PRES   REMARKS
ROCHESTER      MOSUNNY   62  50  65 SW8       30.17F
6HR MIN TEMP:  38; 6HR MAX TEMP:  63;

RED WING       SUNNY     66  39  37 W7        30.13F
STANTON        SUNNY     64  43  45 W7        30.13F
DODGE CENTER   SUNNY     63  45  51 W8        30.15F
WINONA         SUNNY     63  41  45 W3        30.15F
AUSTIN         MOSUNNY   63  43  48 SW8       30.15F
PRESTON        MOSUNNY   60  47  62 W8        30.17F
$$
ABBREVIATIONS USED IN REMARKS
   TC - TEMPERATURES IN CELSIUS
  WCI - WIND CHILL INDEX
   HX - HEAT INDEX
  VSB - VISIBILITY
$$



USA.gov is the U.S. government's official web portal to all federal, state and local government web resources and services.